Stations météo

réclame
Mon MeteoGroup
Groningen Eelde, Pays-Bas (6280): Température de l'air & dewpoint: 13.11.2017 18:00:00 - 19.11.2017 18:00:00 (CET)Groningen Eelde, Pays-Bas (6280): Température de l'air 5cm: 13.11.2017 18:00:00 - 19.11.2017 18:00:00 (CET)Groningen Eelde, Pays-Bas (6280): Vitesse du vent & gusts: 13.11.2017 18:00:00 - 19.11.2017 18:00:00 (CET)Groningen Eelde, Pays-Bas (6280): Direction du vent: 13.11.2017 18:00:00 - 19.11.2017 18:00:00 (CET)Groningen Eelde, Pays-Bas (6280): reduced air pressure: 13.11.2017 18:00:00 - 19.11.2017 18:00:00 (CET)Groningen Eelde, Pays-Bas (6280): visibility: 13.11.2017 18:00:00 - 19.11.2017 18:00:00 (CET)Groningen Eelde, Pays-Bas (6280): Quantités de précipitations: 13.11.2017 18:00:00 - 19.11.2017 18:00:00 (CET)
Date & Time tt [°C] td [°C] tt 5cm [°C] ff [km/h] ff [knt] fx [km/h] fx [knt] dd ppp [hPa] vv [km] rr [mm]
19.11.2017 18:00:00 6,6 2,8 5,9 21 11 36 19 WNW 1015,9 10 0,0
19.11.2017 17:00:00 6,9 2,9 6,0 18 10 32 18 NW 1015,3 10 0,0
19.11.2017 16:00:00 7,0 3,5 6,4 21 11 - - WNW 1014,7 10 0,1
19.11.2017 15:00:00 8,4 3,5 7,7 22 12 50 27 WNW 1014,3 10 0,0
19.11.2017 14:00:00 8,0 3,1 7,8 24 13 68 37 NW 1014,7 10 0,1
19.11.2017 13:00:00 9,9 3,9 9,7 26 14 - - NW 1013,7 10 0,0
19.11.2017 12:00:00 9,1 4,0 8,8 26 14 47 25 WNW 1013,1 10 0,0
19.11.2017 11:00:00 7,8 4,4 7,4 26 14 50 27 WNW 1012,9 10 0,0
19.11.2017 10:00:00 7,4 4,1 6,4 24 13 - - WNW 1012,4 10 0,1
19.11.2017 09:00:00 6,6 3,1 5,7 26 14 36 19 WNW 1011,8 10 0,0
19.11.2017 08:00:00 6,2 3,6 5,1 21 11 54 29 WNW 1011,7 10 1,6
19.11.2017 07:00:00 5,0 2,8 4,0 16 9 - - WSW 1011,2 10 0,0
19.11.2017 06:00:00 5,9 2,7 4,7 24 13 47 25 WNW 1011,0 10 0,0
19.11.2017 05:00:00 6,0 3,2 4,2 16 9 36 19 W 1011,0 10 0,0
19.11.2017 04:00:00 6,1 2,9 3,7 16 9 - - WSW 1011,1 10 0,0
19.11.2017 03:00:00 5,1 2,9 4,3 15 8 29 16 W 1011,6 10 0,4
19.11.2017 02:00:00 4,9 1,7 3,8 15 8 22 12 WSW 1011,7 10 0,0
19.11.2017 01:00:00 2,4 0,5 1,6 8 4 - - WSW 1011,7 10 0,0
19.11.2017 00:00:00 3,4 0,9 1,7 11 6 18 10 WSW 1012,0 10 0,0
18.11.2017 23:00:00 3,1 0,8 2,5 13 7 22 12 WSW 1012,4 10 0,0
18.11.2017 22:00:00 4,9 1,0 3,9 13 7 - - W 1012,6 10 0,0
18.11.2017 21:00:00 3,6 0,5 2,0 16 9 22 12 WSW 1012,9 10 0,0
18.11.2017 20:00:00 5,1 -0,1 3,4 16 9 29 16 W 1013,0 10 0,0
18.11.2017 19:00:00 3,9 0,4 1,7 13 7 - - W 1013,2 10 0,0
18.11.2017 18:00:00 4,4 2,0 2,5 15 8 22 12 WSW 1013,5 10 0,0
18.11.2017 17:00:00 3,9 2,4 2,8 15 8 22 12 WSW 1013,5 10 0,0
18.11.2017 16:00:00 5,5 2,8 4,6 16 9 - - W 1013,5 10 0,0
18.11.2017 15:00:00 5,7 3,3 5,1 13 7 32 18 W 1013,5 10 0,0
18.11.2017 14:00:00 6,2 3,0 5,8 22 12 43 23 NW 1013,5 10 1,6
18.11.2017 13:00:00 6,6 5,7 6,5 16 9 - - W 1013,1 10 0,5
18.11.2017 12:00:00 6,1 5,1 5,8 24 13 47 25 WNW 1013,6 10 3,6
18.11.2017 11:00:00 7,8 6,0 7,4 24 13 43 23 W 1013,5 10 2,0
18.11.2017 10:00:00 8,0 5,8 6,8 22 12 - - WSW 1014,2 10 0,4
18.11.2017 09:00:00 7,0 4,2 6,6 28 15 43 23 WSW 1014,6 10 0,0
18.11.2017 08:00:00 6,6 3,7 5,8 28 15 36 19 WSW 1015,4 10 0,0
18.11.2017 07:00:00 6,9 3,6 6,2 24 13 - - WSW 1016,1 10 0,0
18.11.2017 06:00:00 6,6 2,9 5,9 24 13 36 19 WSW 1017,0 10 0,0
18.11.2017 05:00:00 6,8 3,3 6,3 22 12 32 18 WSW 1017,8 10 0,0
18.11.2017 04:00:00 6,3 3,9 5,9 22 12 - - SW 1018,7 10 0,0
18.11.2017 03:00:00 5,9 3,9 5,4 18 10 29 16 SW 1019,9 10 0,0
18.11.2017 02:00:00 5,8 3,5 5,1 18 10 29 16 SW 1020,4 10 0,0
18.11.2017 01:00:00 5,8 3,6 5,4 18 10 - - SW 1021,2 10 0,0
18.11.2017 00:00:00 5,8 3,4 5,3 16 9 25 14 SW 1022,0 10 0,0
17.11.2017 23:00:00 6,1 3,6 5,5 16 9 29 16 SW 1022,4 10 0,0
17.11.2017 22:00:00 5,8 4,1 5,3 16 9 - - SW 1023,1 10 0,0
17.11.2017 21:00:00 5,5 3,9 4,4 16 9 22 12 SW 1023,3 10 0,0
17.11.2017 20:00:00 4,4 3,1 3,1 15 8 18 10 SW 1023,7 10 0,0
17.11.2017 19:00:00 3,2 2,1 1,8 15 8 - - SW 1024,3 10 0,0
17.11.2017 18:00:00 3,1 1,9 1,7 13 7 14 8 SW 1024,7 10 0,0
17.11.2017 17:00:00 5,2 2,9 3,7 9 5 14 8 WSW 1025,1 10 0,0
17.11.2017 16:00:00 5,7 3,6 5,0 11 6 - - WSW 1025,0 10 0,0
17.11.2017 15:00:00 9,2 4,2 8,2 13 7 32 18 WSW 1025,3 10 0,0
17.11.2017 14:00:00 9,7 4,7 10,3 15 8 25 14 WSW 1025,9 10 0,0
17.11.2017 13:00:00 9,6 4,9 10,7 13 7 - - WSW 1026,1 10 0,0
17.11.2017 12:00:00 8,8 5,0 9,4 11 6 14 8 WSW 1026,6 10 0,0
17.11.2017 11:00:00 7,1 4,5 7,5 9 5 14 8 WSW 1026,8 10 0,0
17.11.2017 10:00:00 3,9 3,3 3,6 5 3 - - SW 1026,7 10 0,0
17.11.2017 09:00:00 1,0 0,6 -0,7 8 4 11 6 SW 1026,5 10 0,0
17.11.2017 08:00:00 0,1 -0,4 -2,1 9 5 11 6 WSW 1026,3 10 0,0
17.11.2017 07:00:00 1,2 0,9 -0,9 8 4 - - WSW 1025,8 10 0,0
17.11.2017 06:00:00 0,1 0,1 -1,8 8 4 11 6 SSW 1025,5 10 0,0
17.11.2017 05:00:00 0,5 0,3 -2,0 5 3 11 6 W 1025,2 10 0,0
17.11.2017 04:00:00 0,4 0,4 -1,7 8 4 - - WSW 1024,9 10 0,0
17.11.2017 03:00:00 2,2 2,0 -1,2 4 2 11 6 W 1024,7 2,3 0,0
17.11.2017 02:00:00 3,1 2,8 -0,2 5 3 11 6 WNW 1024,0 10 0,0
17.11.2017 01:00:00 4,2 3,8 1,0 5 3 - - WNW 1023,6 10 0,0
17.11.2017 00:00:00 5,4 5,1 2,6 8 4 14 8 WNW 1023,2 10 0,0
16.11.2017 23:00:00 7,7 7,0 6,8 9 5 14 8 W 1022,6 10 0,0
16.11.2017 22:00:00 8,6 8,0 8,1 9 5 - - W 1022,2 10 0,0
16.11.2017 21:00:00 8,9 8,2 8,7 16 9 36 19 WNW 1021,5 9 0,9
16.11.2017 20:00:00 10,3 9,8 9,9 16 9 25 14 WSW 1020,5 4,8 0,0
16.11.2017 19:00:00 10,2 9,7 9,9 15 8 - - WSW 1020,3 3,5 0,0
16.11.2017 18:00:00 9,7 9,4 9,5 18 10 25 14 SW 1020,1 3,6 0,0
16.11.2017 17:00:00 9,4 9,1 9,3 16 9 29 16 SSW 1020,1 4,7 0,3
16.11.2017 16:00:00 9,5 9,0 9,4 21 11 - - SW 1020,3 4,8 0,0
16.11.2017 15:00:00 9,8 9,1 9,8 18 10 32 18 SW 1020,1 7 0,0
16.11.2017 14:00:00 9,8 9,2 9,9 21 11 29 16 SSW 1020,6 7 0,0
16.11.2017 13:00:00 10,1 9,6 10,1 18 10 - - SSW 1020,9 8 0,0
16.11.2017 12:00:00 9,6 9,2 9,6 18 10 25 14 SSW 1021,5 6 0,0
16.11.2017 11:00:00 9,3 9,1 9,4 16 9 25 14 SSW 1021,8 2,4 0,0
16.11.2017 10:00:00 9,3 9,2 9,3 18 10 - - SSW 1022,0 2,3 0,0
16.11.2017 09:00:00 9,3 9,2 9,2 15 8 22 12 SSW 1021,8 2,6 0,0
16.11.2017 08:00:00 9,2 9,2 9,1 11 6 25 14 SSW 1021,6 2,5 0,0
16.11.2017 07:00:00 9,1 9,1 9,0 15 8 - - SSW 1021,4 2,1 0,0
16.11.2017 06:00:00 9,0 9,0 8,9 13 7 22 12 SSW 1021,6 2,1 0,0
16.11.2017 05:00:00 8,9 8,9 8,8 11 6 18 10 SSW 1022,1 3,7 0,0
16.11.2017 04:00:00 8,8 8,8 8,8 15 8 - - SSW 1022,6 2,4 0,0
16.11.2017 03:00:00 8,9 8,9 8,9 13 7 18 10 S 1022,8 3,6 0,0
16.11.2017 02:00:00 9,0 8,9 8,9 11 6 18 10 S 1023,0 3,7 0,0
16.11.2017 01:00:00 8,9 8,8 8,8 13 7 - - S 1023,4 4,1 0,0
16.11.2017 00:00:00 8,8 8,7 8,7 13 7 22 12 S 1023,8 2,9 0,2
15.11.2017 23:00:00 8,8 8,8 8,8 9 5 18 10 S 1024,0 2,6 0,0
15.11.2017 22:00:00 8,9 8,8 8,8 9 5 - - S 1024,5 4,4 0,0
15.11.2017 21:00:00 9,0 9,0 9,0 9 5 18 10 S 1024,5 1,7 0,0
15.11.2017 20:00:00 9,1 9,0 9,0 13 7 18 10 SSW 1024,5 6 0,0
15.11.2017 19:00:00 9,4 9,4 9,4 11 6 - - SSW 1024,5 2,1 0,0
15.11.2017 18:00:00 9,8 9,5 9,6 11 6 14 8 SSW 1024,5 4,3 0,0
15.11.2017 17:00:00 9,7 9,5 9,6 9 5 14 8 SSW 1024,4 3,1 0,0
15.11.2017 16:00:00 9,8 9,7 9,8 9 5 - - SSW 1024,4 3,1 0,0
15.11.2017 15:00:00 9,9 9,6 10,0 11 6 14 8 SSW 1024,5 3,4 0,0
15.11.2017 14:00:00 10,1 9,7 10,3 13 7 18 10 SSW 1024,2 3,7 0,0
15.11.2017 13:00:00 10,2 9,9 10,4 13 7 - - SW 1024,4 3,3 0,0
15.11.2017 12:00:00 10,0 9,9 10,1 13 7 18 10 SW 1024,6 2,6 0,0
15.11.2017 11:00:00 9,9 9,9 10,0 15 8 22 12 SW 1024,3 2,1 0,0
15.11.2017 10:00:00 9,5 9,5 9,5 15 8 - - SW 1024,2 2,0 0,0
15.11.2017 09:00:00 9,4 9,3 9,3 16 9 25 14 SSW 1023,6 1,8 0,0
15.11.2017 08:00:00 9,5 9,3 9,4 13 7 22 12 SW 1023,4 2,4 0,0
15.11.2017 07:00:00 9,6 9,4 9,4 15 8 - - SW 1022,9 2,9 0,3
15.11.2017 06:00:00 9,6 9,4 9,4 16 9 25 14 SW 1022,6 2,7 0,1
15.11.2017 05:00:00 9,6 9,4 9,5 15 8 25 14 SW 1022,4 3,0 0,0
15.11.2017 04:00:00 9,8 9,6 9,6 16 9 - - SW 1022,3 3,1 0,0
15.11.2017 03:00:00 9,8 9,7 9,6 15 8 22 12 SW 1022,5 3,7 0,0
15.11.2017 02:00:00 9,7 9,7 9,5 15 8 22 12 SW 1022,3 4,3 0,2
15.11.2017 01:00:00 9,3 9,3 9,1 13 7 - - SSW 1022,4 2,7 0,5
15.11.2017 00:00:00 9,0 9,0 8,9 13 7 18 10 SSW 1022,4 3,3 0,1
14.11.2017 23:00:00 8,7 8,7 8,7 11 6 18 10 SSW 1022,2 1,5 0,0
14.11.2017 22:00:00 8,6 8,6 8,6 15 8 - - SSW 1022,2 0,8 0,0
14.11.2017 21:00:00 8,8 8,7 8,8 11 6 18 10 SSW 1022,0 2,8 0,0
14.11.2017 20:00:00 8,8 8,8 8,7 15 8 22 12 SW 1021,6 2,7 0,3
14.11.2017 19:00:00 8,8 8,8 8,7 13 7 - - SW 1021,4 2,6 0,3
14.11.2017 18:00:00 8,6 8,6 8,5 13 7 22 12 SW 1021,1 3,7 0,4
14.11.2017 17:00:00 8,4 8,4 8,3 18 10 29 16 SW 1020,7 2,3 0,3
14.11.2017 16:00:00 8,2 8,0 8,1 22 12 - - SW 1020,3 3,1 0,1
14.11.2017 15:00:00 8,1 7,8 8,0 24 13 36 19 SW 1020,0 2,6 0,1
14.11.2017 14:00:00 8,0 7,4 8,0 26 14 36 19 WSW 1020,0 4,3 0,0
14.11.2017 13:00:00 8,3 6,5 8,2 26 14 - - WSW 1019,8 10 0,0
14.11.2017 12:00:00 8,3 5,5 8,2 29 16 43 23 SW 1019,6 10 0,0
14.11.2017 11:00:00 8,3 5,2 7,9 28 15 40 21 SW 1019,7 10 0,0
14.11.2017 10:00:00 7,0 4,5 6,6 26 14 - - SW 1019,6 10 0,0
14.11.2017 09:00:00 6,2 4,6 5,9 16 9 25 14 SSW 1020,0 10 0,0
14.11.2017 08:00:00 5,8 4,1 5,2 16 9 29 16 SSW 1019,4 10 0,0
14.11.2017 07:00:00 5,8 4,4 5,4 21 11 - - SW 1019,9 10 0,0
14.11.2017 06:00:00 5,1 3,9 4,6 13 7 18 10 SSW 1020,1 10 0,0
14.11.2017 05:00:00 4,8 3,8 4,1 11 6 18 10 SW 1020,4 10 0,0
14.11.2017 04:00:00 3,4 2,7 2,4 13 7 - - SW 1020,7 10 0,0
14.11.2017 03:00:00 2,3 1,6 1,1 13 7 14 8 SW 1021,1 10 0,0
14.11.2017 02:00:00 1,5 0,8 -0,5 9 5 11 6 SW 1021,3 10 0,0
14.11.2017 01:00:00 1,9 1,1 0,5 8 4 - - SW 1021,3 10 0,0
14.11.2017 00:00:00 1,5 1,3 -0,4 8 4 14 8 WSW 1021,5 10 0,0
13.11.2017 23:00:00 2,0 0,6 -0,7 5 3 14 8 W 1021,2 10 0,0
13.11.2017 22:00:00 2,6 1,8 -0,4 2 1 - - - 1021,4 10 0,0
13.11.2017 21:00:00 3,8 2,5 0,5 9 5 14 8 W 1021,0 10 0,0
13.11.2017 20:00:00 3,7 1,6 2,2 8 4 22 12 WNW 1020,5 10 0,1
13.11.2017 19:00:00 6,5 3,3 5,5 16 9 - - NNW 1020,3 10 0,0
13.11.2017 18:00:00 6,4 4,3 5,6 11 6 25 14 NW 1019,9 10 0,0

tt = Température de l'air
td = dewpoint
tt 5cm = Température de l'air 5cm
ff = Vitesse du vent
fx = gusts
dd = Direction du vent
ppp = reduced air pressure
vv = visibility
rr = Quantités de précipitations

stations d'obs. à proximité